GFSSE_sfc_rhum_162.txt.gz
RH
58 65 91 91 92 92 93 93 93 93 91 89 89 89 91 89 88 86 84 83 81 76 75 76 79 79 77 75 77 79 79 82 82 79 79 78 78 79 82 85 86 50 86
62 65 92 91 89 89 90 91 91 92 91 88 89 89 89 88 88 86 84 82 79 75 74 76 76 76 76 77 78 79 80 81 82 79 76 80 77 78 82 85 86 65 86
70 71 74 93 92 90 90 88 88 87 87 89 90 92 90 88 86 86 86 84 82 78 76 77 77 76 76 79 79 79 79 81 83 83 80 46 46 79 82 86 84 82 83
64 71 75 93 90 89 90 90 90 88 87 87 87 88 88 88 88 88 88 89 86 83 80 79 77 78 79 84 83 80 80 82 84 85 51 40 38 79 80 86 84 83 83
63 76 79 88 88 84 85 87 87 86 85 84 84 83 84 84 85 84 84 84 85 85 86 87 87 87 88 89 90 87 83 84 86 74 39 44 45 60 77 81 82 86 87
63 71 80 84 83 79 79 81 81 81 80 80 79 79 79 79 79 79 80 80 80 80 81 83 87 89 91 94 94 92 91 87 89 38 37 48 52 71 76 83 84 81 86
65 68 65 82 80 74 74 74 74 74 74 72 72 73 73 72 71 72 72 72 73 74 75 76 79 81 85 87 90 93 96 93 62 43 40 42 50 75 76 82 86 84 83
61 60 59 73 76 71 70 71 72 70 70 70 68 68 68 69 68 68 68 69 69 69 69 70 71 72 74 78 79 81 84 94 64 45 39 38 58 78 79 81 86 87 86
60 58 58 57 66 71 70 72 71 69 68 68 68 67 66 65 66 63 66 66 66 65 66 65 66 66 66 68 71 75 78 79 68 48 39 37 69 82 80 81 86 88 88
62 58 56 54 52 51 55 69 69 69 68 66 64 62 55 56 52 59 54 65 65 65 63 64 66 64 62 60 60 67 71 77 53 56 65 43 77 80 81 82 85 85 86
55 57 55 51 50 49 46 52 58 60 57 52 50 56 49 39 40 38 61 63 62 64 58 60 61 60 54 53 53 56 64 41 46 47 50 75 82 77 80 83 87 88 86
54 54 53 54 50 44 33 44 43 40 42 45 45 45 41 46 44 37 44 49 49 55 46 50 49 48 44 29 26 41 25 32 35 40 46 87 90 86 82 85 86 89 89
43 42 48 55 54 44 41 33 29 33 36 42 52 48 48 39 40 33 32 32 37 41 33 34 33 30 42 40 35 36 34 34 25 25 36 75 74 81 87 83 86 87 89
39 41 45 48 51 50 37 33 33 31 35 37 44 50 41 34 40 39 34 33 37 35 42 39 36 44 44 43 42 43 43 40 32 28 32 61 69 70 80 85 85 86 87
38 42 44 44 46 47 46 43 42 39 39 40 39 49 42 36 44 38 38 34 35 34 36 38 39 42 45 43 44 45 44 44 43 36 35 54 63 59 66 73 79 83 85
36 41 44 42 46 45 49 53 46 44 40 38 40 46 52 43 48 38 38 35 35 37 40 41 44 44 44 45 44 44 44 42 41 43 37 39 58 61 58 65 72 78 83
33 38 45 49 47 48 48 44 43 38 36 37 38 53 52 51 49 48 39 40 41 43 46 44 46 44 43 41 45 42 42 44 40 43 40 37 36 54 63 62 62 71 79
31 38 39 35 46 47 48 40 36 39 36 35 37 41 54 55 54 46 40 44 52 44 43 44 45 47 46 45 45 43 42 42 44 46 41 39 35 34 43 57 66 65 75
31 37 40 44 46 47 48 42 44 47 35 34 35 37 51 53 56 47 44 51 55 45 47 48 48 51 50 48 44 42 42 41 42 35 42 44 45 42 36 45 57 68 78
32 37 40 41 48 46 42 41 35 35 35 33 34 39 50 49 53 49 45 56 53 48 48 51 57 52 51 49 46 44 45 42 40 42 41 42 55 55 50 45 38 33 67
38 39 40 45 50 41 36 35 35 34 34 34 35 46 48 50 54 52 46 52 54 51 57 58 54 58 52 52 56 52 44 40 45 42 37 42 49 54 57 57 42 34 31
40 40 40 41 46 39 34 33 31 31 31 33 36 44 48 50 53 47 56 52 56 53 58 58 59 58 55 56 70 62 54 42 42 44 39 41 53 59 60 68 56 40 35
41 42 40 39 40 39 37 35 34 35 35 35 34 34 44 50 53 57 56 55 56 54 53 57 57 65 62 56 64 83 85 64 73 42 44 43 65 70 73 76 71 42 36
41 42 40 40 39 40 39 33 36 23 23 30 34 35 37 50 52 53 56 56 57 53 58 55 52 62 64 71 65 62 69 84 93 83 49 49 62 71 81 89 89 83 84
39 43 44 43 39 40 38 36 34 30 30 31 35 43 45 47 51 46 51 55 56 52 56 61 63 63 63 72 70 70 72 72 69 96 90 63 64 81 84 88 95 92 87
39 44 46 44 42 43 42 41 38 39 34 30 33 33 35 38 39 43 42 50 53 55 57 57 61 62 64 66 69 68 76 87 82 90 95 89 88 83 85 90 94 95 93

GFSSE_sfc_rhum_165.txt.gz
RH
48 60 88 88 90 91 91 92 91 91 90 88 88 89 90 88 86 84 82 80 78 75 73 73 74 76 75 74 76 77 77 79 81 78 74 77 76 77 80 82 83 54 85
52 63 89 88 89 89 89 91 91 91 89 85 85 87 88 87 85 83 81 78 76 74 72 71 72 71 73 76 76 77 77 79 80 80 77 79 77 77 79 82 84 65 83
61 62 68 92 91 90 88 88 88 90 89 90 91 90 89 88 88 88 89 87 82 79 77 76 77 77 77 79 79 78 78 78 81 82 81 52 55 80 80 84 82 76 80
68 61 68 93 92 92 92 91 90 87 88 88 88 88 88 88 87 87 87 87 85 84 83 82 82 82 86 86 85 84 81 82 83 83 54 40 45 83 82 84 82 80 80
71 74 78 90 90 89 90 89 88 86 85 84 83 83 84 84 84 83 83 83 82 83 84 84 86 87 89 92 93 91 88 88 87 74 39 35 35 64 80 83 82 84 86
68 70 81 87 87 86 86 84 83 82 82 82 79 79 78 78 78 77 77 76 77 77 77 78 80 82 84 86 88 90 93 94 92 44 35 39 41 71 77 84 85 82 89
69 67 70 83 82 79 78 79 78 77 76 76 74 74 73 72 73 73 72 71 70 71 71 71 72 74 75 78 80 82 84 88 72 52 40 35 41 79 75 81 86 83 86
67 66 66 73 75 75 75 74 73 72 71 70 70 70 69 67 68 68 67 66 66 66 66 65 65 65 65 66 70 74 77 81 64 50 44 37 52 82 76 82 87 88 85
65 67 64 60 67 75 75 72 71 70 69 68 66 64 62 64 63 60 66 65 66 65 64 63 64 64 62 61 59 62 67 68 59 53 45 42 77 82 78 83 86 88 88
63 64 61 58 51 54 59 71 69 67 65 62 60 54 58 53 56 58 51 62 61 60 57 58 59 59 56 56 60 62 64 65 41 50 51 49 78 71 76 82 85 87 89
63 60 58 55 51 51 47 55 59 57 53 59 52 49 52 36 36 33 54 53 53 56 49 51 50 53 56 56 61 60 59 22 24 30 31 72 85 83 79 83 87 88 89
65 58 56 55 51 43 30 42 40 37 40 42 41 41 37 41 38 31 38 42 40 49 44 48 48 55 46 27 25 39 24 27 28 24 20 80 77 76 81 86 87 88 89
52 49 51 54 51 43 38 31 28 30 33 41 48 44 44 36 38 30 29 29 34 40 29 32 30 28 40 38 34 36 34 35 27 24 26 66 57 53 63 74 83 86 87
47 46 48 49 49 46 36 29 30 29 33 35 43 46 40 32 40 38 32 30 34 29 37 39 36 44 44 43 41 42 42 40 34 31 35 56 62 52 54 58 69 78 83
41 43 45 45 47 44 42 37 36 36 34 37 37 47 40 35 44 36 36 30 31 31 37 39 40 42 44 43 43 43 42 44 42 36 37 54 60 55 53 56 58 66 75
38 40 43 40 45 42 42 48 45 40 40 37 39 44 49 40 47 36 34 32 32 38 39 39 43 42 43 44 42 43 44 43 43 44 39 42 57 59 55 53 55 57 61
35 37 42 45 45 46 47 42 39 34 33 35 38 50 49 48 48 46 36 37 41 42 43 41 43 42 42 40 43 41 41 43 40 42 41 40 39 53 60 60 54 53 57
32 37 40 36 43 45 44 37 34 36 33 33 35 40 50 50 50 43 36 42 51 42 40 42 44 47 46 45 44 41 40 41 43 44 39 38 37 38 48 57 58 60 60
29 36 37 41 43 45 45 39 41 43 33 31 32 35 47 47 49 44 39 47 53 42 46 48 50 51 50 47 43 42 43 41 41 34 39 42 43 48 47 54 66 68 62
28 35 36 40 46 44 39 38 34 35 33 31 32 38 44 44 46 45 39 51 49 45 48 52 56 50 49 48 43 42 45 42 39 38 40 33 35 48 51 55 62 55 67
32 35 37 41 47 40 36 34 34 34 34 34 36 41 42 45 48 46 41 46 50 50 55 55 53 56 48 49 51 50 43 39 40 43 39 37 44 46 53 64 64 62 59
34 36 37 41 44 35 30 29 30 30 30 32 34 42 43 44 47 40 50 46 53 51 54 56 57 55 48 52 60 56 56 43 45 46 41 43 53 49 57 66 68 70 75
37 38 36 38 39 34 33 33 33 32 35 35 36 34 40 43 45 50 49 50 52 50 49 53 55 58 58 53 59 70 75 63 70 45 49 52 54 50 69 77 72 76 79
37 37 36 37 37 35 37 32 36 27 27 29 31 32 36 44 46 45 49 50 52 48 53 52 49 55 58 58 56 54 62 71 89 80 50 56 54 51 76 91 88 80 82
36 38 38 37 35 37 34 33 34 29 31 30 31 42 40 46 45 40 44 48 51 47 52 56 57 56 52 56 62 67 69 68 66 92 87 66 57 55 77 88 93 91 86
34 39 41 40 35 38 36 37 35 36 31 30 33 36 34 36 36 40 38 45 48 50 52 51 55 54 55 59 67 70 75 83 81 88 91 76 77 68 67 91 94 92 92

GFSSE_sfc_rhum_168.txt.gz
RH
58 70 90 91 92 92 92 91 91 92 91 91 91 91 91 90 89 87 85 84 82 76 73 74 77 76 76 76 78 82 84 85 86 86 83 77 76 77 81 83 86 62 86
61 68 90 91 91 91 91 91 91 91 89 88 90 91 90 90 90 89 88 85 82 79 77 77 78 78 77 79 83 84 84 85 86 87 86 78 78 78 80 84 86 74 87
67 71 75 88 88 90 91 92 93 91 91 91 91 90 88 86 86 86 89 89 85 82 80 80 80 82 86 87 87 87 86 86 87 87 87 79 70 82 80 86 85 80 87
62 69 78 92 92 91 92 92 92 90 88 88 88 88 87 87 87 87 86 85 83 83 84 85 86 87 89 89 90 92 92 91 89 88 74 55 49 80 84 86 85 82 84
69 74 88 95 94 93 92 90 90 88 88 86 86 86 85 85 84 83 82 82 81 81 81 82 83 84 84 86 87 89 90 93 96 89 62 51 54 71 80 85 86 86 87
74 79 89 93 92 90 88 87 86 85 85 84 82 80 80 79 78 78 77 76 76 75 75 75 75 76 78 81 83 85 86 88 92 73 60 52 48 76 76 85 82 83 89
78 78 79 90 89 86 84 83 82 81 80 78 77 76 75 75 73 71 69 68 67 67 67 66 66 66 67 68 72 75 78 81 77 73 66 57 54 79 81 82 85 83 85
77 76 75 80 83 82 80 78 77 76 75 74 72 70 68 68 68 66 66 66 64 64 64 63 63 63 62 61 61 62 68 66 54 65 62 56 69 74 75 81 86 86 85
76 76 76 75 76 78 79 76 75 73 70 68 65 64 64 63 61 61 65 61 61 59 57 56 58 57 57 57 61 69 67 67 59 49 57 57 79 79 73 79 84 88 88
79 78 74 76 72 74 74 73 71 68 66 62 59 61 62 64 62 55 48 56 54 54 50 51 51 52 55 61 68 72 65 67 49 40 52 52 78 74 72 77 83 88 89
76 76 74 69 67 69 68 64 65 64 63 60 56 55 63 56 52 54 52 48 48 51 48 49 50 58 65 57 56 66 66 42 40 37 33 78 72 71 81 84 87 88 87
74 73 72 70 68 64 40 64 63 55 60 60 57 57 63 62 53 42 51 44 46 55 56 58 59 58 52 47 45 51 44 46 43 40 32 69 59 51 51 61 75 82 87
66 65 66 72 72 65 56 55 48 52 60 67 64 63 61 59 64 56 58 56 58 51 51 50 51 50 58 59 55 56 52 50 48 44 43 60 56 51 52 54 56 62 72
64 61 62 64 68 69 57 53 55 51 60 61 66 64 66 65 68 64 58 55 56 56 64 63 64 63 62 58 57 59 58 58 52 49 52 61 61 53 52 53 54 56 59
60 60 62 62 64 65 66 66 64 61 59 63 66 66 66 65 70 61 61 55 58 60 63 64 64 63 64 60 60 59 57 58 58 55 62 60 63 54 52 52 52 54 56
54 57 62 58 64 60 67 70 71 68 65 64 66 68 67 68 71 62 61 58 63 63 63 63 67 67 66 65 58 59 58 57 56 58 58 63 64 66 57 50 50 51 52
48 52 66 62 63 66 66 66 66 62 58 63 66 70 68 68 68 63 64 66 68 66 63 65 66 65 63 57 60 56 57 53 52 53 57 55 56 62 69 62 65 66 68
43 50 51 45 60 65 66 61 55 61 61 60 64 69 68 66 66 64 64 70 74 67 66 68 68 69 68 66 60 57 54 56 57 53 51 57 56 55 63 62 66 74 74
40 48 50 57 59 61 64 60 62 63 59 56 60 63 66 66 66 67 68 73 73 69 72 69 70 72 68 64 55 55 59 57 56 46 54 52 49 60 58 60 68 69 74
40 47 48 54 59 60 57 58 55 58 58 57 58 61 63 66 64 65 67 71 70 70 72 72 74 69 70 65 56 55 57 61 64 57 53 47 55 59 57 60 67 66 75
45 47 46 55 61 53 52 50 51 53 54 56 58 59 62 64 63 66 64 68 71 72 74 69 72 70 69 65 70 66 66 56 59 56 57 58 56 54 62 66 71 69 72
45 46 47 52 55 50 46 42 45 46 50 53 58 61 61 62 64 59 68 67 71 72 74 74 73 74 72 67 76 78 78 66 64 60 58 58 60 56 54 61 72 73 74
46 48 47 50 51 47 44 45 44 49 53 57 61 59 60 60 62 65 66 69 71 70 73 74 74 74 76 70 73 83 90 88 79 66 61 62 61 60 60 66 71 80 75
46 47 46 49 48 46 49 48 48 44 47 53 58 55 58 62 60 59 64 66 70 70 74 73 65 74 74 75 75 66 66 73 92 86 69 65 62 59 62 78 86 84 82
44 47 48 50 46 48 47 48 51 51 50 47 55 62 62 64 59 55 61 66 69 71 71 72 74 76 74 76 80 74 69 74 70 92 89 75 67 64 68 79 94 91 85
41 47 49 50 46 49 52 52 58 54 48 48 58 61 63 61 59 57 54 64 66 68 69 71 71 71 76 77 74 70 81 88 87 93 93 82 79 71 63 92 94 93 90

GFSSE_sfc_rhum_171.txt.gz
RH
85 89 93 92 92 92 92 93 94 94 94 93 93 92 92 91 91 90 89 87 85 81 76 78 80 79 77 79 81 83 86 87 88 86 86 82 78 78 81 86 85 73 89
82 86 93 92 92 91 91 92 92 92 92 92 92 92 92 92 92 92 91 89 87 82 80 81 82 84 86 89 89 90 89 88 88 87 83 79 77 80 80 86 82 81 90
87 88 87 92 91 91 91 92 92 92 91 90 89 88 87 84 87 87 87 86 84 84 84 83 82 83 84 87 91 93 93 94 93 90 87 83 79 80 78 86 84 88 89
80 84 84 90 90 92 94 94 91 85 87 89 86 86 85 86 85 85 85 84 83 82 82 82 83 83 84 86 87 88 89 91 95 95 89 72 61 71 78 85 85 84 87
89 89 90 94 94 92 92 92 92 91 90 90 87 85 85 84 83 83 82 81 80 79 78 78 78 78 80 83 84 85 87 88 89 87 84 74 68 63 78 83 87 86 86
94 90 95 95 94 92 90 90 89 88 88 87 84 82 81 81 80 77 75 74 73 71 70 69 68 67 69 70 73 74 74 75 78 77 77 73 67 76 76 82 86 86 88
92 90 90 94 92 90 88 87 86 85 85 82 80 80 79 76 73 71 69 67 66 65 64 62 63 62 62 62 62 63 63 64 50 58 67 68 68 76 72 79 83 87 87
89 86 85 88 90 88 86 85 85 83 80 78 76 74 71 70 67 66 64 64 62 60 58 58 57 57 58 59 61 68 71 68 50 50 48 64 72 78 71 77 81 85 85
81 82 82 82 82 85 85 84 83 80 76 73 70 66 65 65 65 61 59 56 57 55 52 52 51 53 55 62 68 72 74 69 66 56 42 53 81 78 74 75 81 81 86
82 82 83 80 84 86 82 80 77 73 69 67 67 67 68 64 56 52 56 52 53 52 48 48 51 60 57 58 65 66 67 59 49 46 48 66 65 55 57 77 85 85 84
84 85 87 85 82 85 82 73 70 66 64 64 62 64 74 65 64 58 54 51 49 60 52 56 60 58 57 58 58 63 59 52 52 49 45 68 57 55 55 57 63 72 80
86 80 76 81 81 79 60 75 78 70 78 72 66 67 72 59 54 55 54 54 58 58 56 56 58 56 59 63 63 61 62 58 59 54 47 63 56 55 56 55 56 59 62
80 79 72 76 75 68 63 78 79 76 79 76 69 65 66 62 68 67 68 64 61 63 62 61 63 62 62 64 66 64 62 62 67 61 55 59 55 55 54 55 55 55 57
75 75 74 70 68 74 71 70 69 69 77 77 72 72 75 76 71 66 65 63 66 73 67 70 73 66 67 63 62 64 63 65 66 64 65 62 57 54 54 54 53 54 54
77 74 70 73 79 65 69 75 69 74 73 75 73 72 76 73 73 68 67 70 70 70 69 73 73 73 71 69 66 64 64 64 64 66 74 65 63 53 52 53 59 64 66
71 71 71 69 75 67 74 69 74 68 72 77 77 74 74 76 71 68 71 74 73 75 75 75 76 77 76 72 68 66 64 61 59 61 64 68 68 64 61 65 66 71 70
67 68 76 72 71 71 71 68 67 67 69 75 77 73 71 71 70 70 80 78 77 75 73 76 76 77 78 70 72 65 63 61 63 64 65 65 66 68 66 66 70 68 70
64 69 65 59 73 73 66 68 67 71 73 74 79 78 71 68 70 75 81 77 79 77 77 78 80 80 80 81 71 72 72 70 62 61 62 62 64 63 63 67 67 69 73
58 64 63 69 79 75 71 66 70 67 68 72 79 78 71 69 70 77 81 78 78 80 83 77 81 81 84 74 60 68 76 70 74 52 57 57 62 63 63 63 69 74 74
54 56 59 64 75 75 72 65 70 64 71 70 73 76 69 70 68 77 78 77 78 80 80 81 77 76 81 72 60 64 72 77 63 68 71 56 59 57 61 62 73 76 77
52 56 58 68 73 65 60 59 60 62 63 71 69 68 70 68 69 71 79 78 78 78 79 74 80 81 80 71 86 84 77 73 62 69 68 61 60 54 57 60 68 69 75
53 54 58 62 62 64 58 53 51 53 63 66 73 70 70 68 70 67 76 78 76 77 79 79 82 83 83 79 89 93 92 78 72 71 73 62 64 60 58 57 67 73 74
54 54 57 61 56 58 55 51 55 57 65 73 71 71 70 68 69 71 72 75 76 79 84 81 81 80 85 83 78 92 95 97 84 78 75 66 64 66 65 63 78 81 78
52 50 54 57 53 53 54 51 48 49 56 67 65 71 71 64 65 68 71 73 79 82 80 77 77 82 82 89 88 71 75 79 98 92 78 75 67 65 64 73 91 84 81
49 48 55 55 51 48 49 46 48 52 59 64 66 68 71 65 62 63 69 73 77 81 80 76 84 82 82 89 89 86 70 78 77 91 90 77 71 70 64 86 92 92 89
45 47 54 54 50 54 49 48 54 58 56 59 69 71 71 67 66 64 63 73 73 76 76 80 80 82 84 86 86 81 79 90 86 91 91 82 80 76 68 94 97 94 93

GFSSE_sfc_rhum_174.txt.gz
RH
92 93 92 92 94 95 96 96 96 95 95 93 92 92 92 92 92 91 91 89 87 83 80 80 83 85 85 86 86 87 87 87 88 83 82 79 79 79 82 85 86 78 90
90 92 94 92 93 94 94 95 95 94 93 92 93 93 92 85 91 91 91 90 87 82 83 83 83 82 84 87 90 91 92 93 94 91 85 79 74 77 78 85 85 84 89
92 91 91 92 92 92 93 93 93 92 91 90 89 87 84 81 82 85 85 84 81 80 80 80 81 83 84 85 87 87 88 90 92 92 90 87 78 74 77 83 84 86 86
90 91 91 93 92 93 94 94 92 89 87 83 81 84 85 85 84 84 82 83 80 79 80 81 81 82 84 84 84 85 85 86 86 86 88 82 73 73 77 84 83 84 87
91 90 92 94 95 95 94 91 90 89 87 89 87 86 85 84 84 84 83 81 80 78 76 75 73 72 71 73 73 69 67 67 73 70 80 83 82 67 78 79 80 83 86
98 97 96 94 94 94 94 94 92 92 92 90 86 84 81 83 81 79 77 75 71 67 64 63 62 62 63 63 63 63 62 61 60 46 43 64 72 76 76 77 82 84 86
97 96 93 96 94 93 91 90 90 90 89 86 84 81 80 78 76 72 69 66 64 61 59 58 57 58 60 62 63 65 66 70 56 55 46 45 67 80 75 75 79 82 86
96 94 92 93 94 93 91 90 89 88 85 83 82 78 74 70 68 66 64 62 59 56 54 53 54 58 60 61 64 71 73 67 50 55 49 58 67 67 78 86 83 82 81
95 92 93 91 90 92 91 90 88 86 83 79 75 72 70 67 61 60 57 57 54 52 50 51 60 59 59 60 61 66 65 60 58 53 44 62 61 60 61 66 72 82 89
94 88 88 87 84 84 86 88 86 83 80 74 68 68 67 59 58 57 56 54 53 51 54 59 59 58 57 59 59 60 60 59 61 56 56 58 59 58 60 61 62 66 70
93 86 86 84 84 89 88 81 78 73 71 73 70 71 76 74 66 63 57 56 55 55 57 59 57 57 58 60 58 58 59 64 61 62 60 59 57 58 57 58 59 60 61
98 91 86 85 91 86 73 83 82 71 82 77 79 82 71 66 71 60 60 58 60 58 59 59 56 59 62 68 69 63 68 64 66 64 58 58 57 57 57 57 57 58 58
91 91 90 88 88 83 76 82 85 82 82 79 72 76 71 71 71 72 71 70 74 64 68 67 66 69 68 70 69 70 68 66 72 68 64 61 56 55 56 55 55 56 59
88 80 82 83 83 78 78 80 78 77 78 81 78 74 76 77 70 70 71 73 74 74 74 77 80 73 73 68 66 69 68 70 69 70 70 62 58 55 56 61 67 68 66
88 78 78 82 79 68 77 82 86 86 75 78 79 78 75 74 73 74 75 75 75 73 77 78 77 76 75 73 71 67 68 62 62 67 76 64 64 60 64 65 68 67 67
82 78 81 78 67 71 79 77 78 76 79 79 79 80 75 78 76 78 77 75 78 78 79 78 79 79 79 78 70 67 66 64 65 66 66 76 72 71 72 70 67 67 68
77 74 80 76 65 72 72 77 76 74 75 78 78 76 75 75 77 82 80 80 83 80 77 78 78 79 80 70 72 71 71 70 68 66 69 69 69 68 68 69 68 71 71
75 75 73 64 70 67 83 80 72 74 80 81 80 79 74 75 80 81 79 82 85 82 80 81 82 81 82 81 76 75 76 70 66 66 64 64 65 66 67 65 69 74 74
74 76 73 71 75 73 76 81 76 78 78 81 82 78 74 76 80 81 81 85 84 83 84 75 82 85 77 73 61 73 77 73 74 61 61 61 59 59 59 64 70 74 76
72 73 68 70 72 77 77 76 77 75 83 82 79 75 74 78 78 82 83 85 83 82 80 78 79 82 75 79 60 70 80 74 73 78 69 58 58 60 62 61 68 75 79
73 72 69 73 73 73 62 68 70 78 73 80 74 71 72 75 76 81 84 84 82 82 80 75 81 77 78 78 76 80 79 75 73 78 70 70 63 61 63 66 72 80 75
73 69 68 69 70 62 58 52 59 68 68 67 73 72 71 73 76 76 81 82 82 82 80 79 76 83 84 82 88 92 84 72 77 76 76 69 70 68 66 65 78 77 76
70 67 67 66 65 61 60 56 66 63 68 73 71 74 72 72 74 77 77 79 80 82 81 81 79 77 90 89 85 86 76 77 96 82 79 78 71 75 66 70 82 82 76
65 62 63 64 62 58 54 50 56 56 60 69 68 73 74 72 73 74 75 77 80 82 80 81 76 84 87 94 89 78 85 89 97 96 82 80 72 72 68 88 90 85 80
60 61 61 61 58 56 50 52 52 57 64 67 71 72 70 71 72 72 75 77 78 82 80 78 83 85 86 88 93 92 91 94 90 94 84 83 79 79 68 94 92 91 82
57 59 62 58 58 59 53 53 51 58 69 68 72 73 71 71 73 74 70 75 76 78 78 84 84 83 87 89 90 89 96 91 84 91 89 83 82 84 80 95 94 95 89

GFSSE_sfc_rhum_180.txt.gz
RH
95 96 93 94 95 94 94 94 94 93 92 91 91 91 91 90 89 87 86 85 85 81 81 81 80 79 80 82 83 84 84 85 87 88 85 79 74 77 78 84 85 80 85
95 96 96 92 94 94 94 95 94 93 91 91 91 91 92 89 88 88 88 88 84 79 80 78 80 81 81 83 84 84 82 79 78 82 82 82 80 74 74 84 86 81 85
95 96 96 91 94 94 93 93 93 91 89 90 90 88 84 83 84 87 85 81 82 80 78 81 81 82 83 80 74 66 63 62 59 58 68 81 81 76 78 84 85 84 83
93 96 96 95 94 94 94 93 92 86 84 84 87 81 80 80 80 79 80 78 78 79 78 77 76 72 68 64 62 62 65 61 60 54 54 68 69 75 79 80 81 81 82
96 96 96 95 86 86 93 85 82 83 86 85 82 79 81 81 80 81 82 80 78 74 69 64 61 61 63 65 65 68 61 62 65 57 58 74 83 81 82 79 80 80 83
97 97 97 96 94 92 86 88 90 88 88 86 83 80 80 84 83 82 80 74 69 62 58 59 62 65 66 67 67 66 61 62 65 64 68 71 76 79 82 86 88 83 84
95 97 97 96 94 93 90 91 90 90 84 82 90 87 86 84 81 76 71 66 60 59 60 63 65 66 65 65 65 65 62 59 59 72 68 70 74 73 77 81 82 87 89
87 93 91 95 94 93 93 92 91 84 90 91 88 85 83 80 75 68 64 61 59 61 64 64 64 65 65 64 64 65 63 61 58 64 68 68 67 68 70 72 76 79 79
89 89 90 91 95 96 96 95 94 90 91 91 88 84 78 74 69 64 61 59 60 66 64 62 63 63 63 62 62 63 63 62 68 68 60 69 62 64 66 67 68 71 74
98 94 95 96 96 96 94 94 92 92 91 89 83 79 76 70 65 62 62 63 66 63 62 60 63 63 63 63 63 63 64 64 66 68 72 64 62 63 63 63 64 68 72
98 95 95 95 98 96 94 92 92 90 89 84 77 71 77 80 75 72 65 64 65 62 61 62 63 64 66 64 63 63 64 69 67 69 72 62 60 59 61 67 71 70 69
98 97 93 96 97 95 91 93 92 88 88 90 86 81 82 79 80 74 68 65 65 62 63 64 65 65 68 74 72 66 69 70 69 69 73 64 62 62 67 67 64 67 68
96 95 93 93 93 93 94 93 90 91 96 96 88 79 77 80 86 85 83 81 84 70 76 73 73 74 74 72 73 73 70 71 73 73 68 64 65 66 67 62 64 63 66
95 93 90 90 92 91 93 89 87 89 92 96 83 77 81 86 78 80 80 79 81 83 83 82 81 78 75 71 70 71 71 73 75 80 81 74 68 66 67 66 64 65 66
93 92 90 89 90 90 92 90 89 92 90 91 83 83 82 76 78 81 81 81 82 81 82 83 80 78 75 71 73 72 74 79 83 81 80 74 73 70 70 68 67 66 65
86 88 90 89 89 86 91 88 88 95 91 86 87 87 77 75 77 79 83 84 85 82 82 82 82 77 77 75 74 75 78 78 75 74 71 72 69 70 71 72 70 69 69
82 83 92 94 87 84 87 86 92 94 90 90 90 83 80 75 76 78 82 87 85 82 80 80 79 73 73 71 77 78 76 74 66 64 64 64 66 71 73 72 71 70 70
80 85 89 88 92 82 86 86 88 93 95 96 94 90 82 76 76 80 83 86 84 79 78 79 71 73 76 79 82 84 80 70 68 64 62 64 67 67 75 74 72 71 72
81 83 90 90 94 83 81 81 89 88 90 87 93 89 86 79 78 78 81 85 83 77 78 72 79 73 77 80 75 80 79 75 70 57 63 66 69 69 71 78 78 77 76
77 79 85 88 90 85 83 77 78 81 83 82 88 87 85 83 80 81 81 81 76 77 77 72 76 80 80 78 64 73 78 76 73 74 72 65 69 71 75 78 78 76 77
76 81 86 88 87 80 76 78 77 88 85 85 81 84 87 82 81 80 80 82 76 70 73 69 75 75 79 80 81 80 79 77 76 75 73 73 72 71 76 78 75 76 70
84 83 88 84 83 77 70 69 67 82 84 74 77 84 82 79 80 80 80 77 72 74 74 72 72 80 80 82 74 78 80 80 74 76 76 71 77 73 78 73 70 72 73
88 84 86 83 81 75 69 66 77 78 79 77 78 81 84 77 78 80 79 76 74 73 72 70 71 69 79 82 81 66 65 51 78 78 78 76 76 75 83 80 75 75 75
90 82 83 82 80 72 67 64 75 69 76 67 73 81 84 80 79 81 76 75 76 77 73 69 67 73 73 77 81 77 82 80 74 72 77 79 76 75 84 85 86 72 72
84 85 84 80 76 68 63 67 80 71 66 72 76 78 82 85 80 77 78 76 78 78 77 72 72 73 75 76 77 84 87 89 88 87 84 84 78 77 85 91 88 90 79
83 84 82 81 76 68 64 73 79 75 81 73 72 75 78 82 84 82 77 78 81 79 75 76 77 77 80 81 81 84 84 85 88 93 93 87 85 80 85 90 88 88 85

GFSSE_sfc_rhum_183.txt.gz
RH
58 63 93 91 92 93 94 94 93 92 90 90 90 90 91 90 87 87 87 86 84 82 79 81 82 82 83 82 81 81 82 83 85 83 82 78 75 75 77 82 82 55 83
58 65 93 86 89 92 93 94 93 92 91 90 90 90 89 87 86 85 86 88 84 77 80 80 81 82 83 83 80 75 68 66 69 76 77 73 76 74 74 78 80 64 80
66 69 76 85 89 92 92 92 92 91 90 90 90 88 87 88 89 89 87 86 83 81 81 81 81 81 77 68 65 64 62 60 58 66 69 48 54 78 77 81 81 82 80
68 69 69 84 90 92 92 92 90 84 88 90 88 82 79 83 86 83 86 87 82 80 78 78 75 69 65 64 67 63 65 66 69 70 55 58 56 83 78 82 79 78 77
69 67 72 90 92 89 92 92 85 85 83 88 83 82 83 82 82 82 84 83 80 76 72 67 64 64 67 69 65 63 70 70 68 59 54 62 59 76 85 81 77 73 78
70 68 87 87 86 84 87 86 87 89 86 87 84 84 82 83 83 82 82 79 72 66 62 63 65 67 68 68 66 63 67 67 64 48 55 65 67 80 84 88 91 90 91
74 74 80 86 83 88 86 87 91 89 87 86 87 87 85 83 83 81 76 70 63 61 63 66 66 66 66 65 65 63 62 64 42 50 51 57 66 75 79 82 82 82 83
79 82 83 88 89 87 90 91 90 90 88 89 90 90 85 84 80 75 68 64 63 65 65 66 66 66 64 64 65 64 64 56 41 42 46 49 67 72 73 76 78 80 80
78 81 85 81 81 90 95 93 91 88 88 91 91 89 86 83 77 70 64 64 67 66 64 64 65 64 64 63 64 64 65 63 40 42 40 45 66 67 68 73 78 80 80
85 83 87 86 79 88 88 94 90 92 93 92 90 88 84 78 73 70 69 68 66 64 64 65 65 65 64 63 64 65 64 58 41 41 42 47 65 65 71 72 72 72 72
92 90 89 88 85 89 82 81 92 92 92 90 86 83 76 56 55 56 66 72 66 64 64 66 66 66 65 63 62 62 51 40 42 42 44 69 64 66 66 68 68 69 70
94 95 90 91 92 88 83 89 88 86 84 82 73 68 63 64 57 51 65 70 66 65 65 65 64 64 49 38 40 49 41 47 45 46 48 72 68 66 62 65 65 66 66
87 92 89 93 93 88 89 91 88 90 85 80 72 68 64 58 57 54 57 55 58 64 49 48 46 39 46 40 42 46 47 47 46 48 64 77 70 63 66 62 63 63 67
94 90 90 90 90 86 88 87 88 87 85 72 64 67 60 62 65 62 55 54 53 47 54 51 48 52 53 52 50 54 56 60 60 61 65 70 67 64 63 63 65 68 68
91 92 92 91 87 88 91 91 91 90 85 69 62 60 57 63 64 53 52 47 47 48 49 50 48 46 53 55 56 58 67 67 66 59 61 72 71 68 66 65 65 66 68
78 86 89 88 87 87 90 92 93 94 87 70 59 57 69 62 61 53 53 49 49 46 47 47 45 47 52 58 63 64 61 56 55 55 52 61 72 71 68 67 66 66 66
72 78 89 90 84 88 90 90 93 91 88 70 63 70 68 66 64 59 53 53 51 54 56 52 50 53 56 59 64 59 55 54 51 51 48 48 56 71 70 69 68 72 72
64 76 83 87 88 88 91 90 90 89 90 83 70 68 69 67 66 61 54 55 56 54 49 43 44 51 57 58 60 55 53 50 54 55 54 54 55 58 68 73 74 74 75
62 70 81 89 91 88 89 87 90 89 87 82 66 61 67 67 66 61 55 59 62 52 52 43 48 54 61 59 55 54 51 50 50 49 58 63 64 58 55 72 75 75 75
64 70 74 86 91 89 86 85 85 84 78 76 70 60 68 62 65 61 57 65 58 54 52 46 53 56 56 54 46 51 52 50 51 57 58 55 61 62 57 56 54 55 73
70 76 77 88 91 88 86 86 85 88 80 78 73 72 73 65 64 62 57 64 58 52 48 54 56 64 61 58 55 57 57 55 55 56 56 56 61 62 61 56 53 52 52
72 77 78 82 88 85 81 77 78 77 79 72 72 73 73 70 65 60 62 60 58 58 57 57 59 59 58 59 53 54 60 59 55 57 57 58 64 58 58 60 61 58 58
74 77 76 78 84 81 80 78 75 76 77 76 76 73 75 73 71 62 65 64 65 57 57 55 54 55 57 59 60 45 51 45 55 52 59 56 64 62 62 64 59 58 58
70 72 71 80 82 81 80 78 78 75 73 64 68 66 74 75 75 68 66 65 63 58 58 57 53 50 52 54 57 51 57 50 42 52 53 58 59 64 67 64 66 63 58
59 70 73 74 82 81 80 77 81 81 74 64 72 76 75 77 77 73 72 71 71 63 57 56 60 56 48 49 47 56 60 51 53 51 52 58 55 69 66 70 66 61 64
55 69 73 76 81 82 80 78 82 82 78 79 77 78 72 77 77 77 74 70 64 60 58 57 59 59 56 54 52 54 47 50 45 59 57 58 55 63 76 78 64 62 64

GFSSE_sfc_rhum_186.txt.gz
RH
34 39 92 91 91 93 93 94 94 92 91 90 90 90 89 90 89 88 86 84 81 80 77 80 80 79 79 78 79 81 80 81 82 82 80 75 74 74 78 80 75 46 79
35 45 92 92 91 92 92 93 93 92 90 90 90 90 91 89 88 87 86 88 84 80 80 80 80 80 79 79 74 69 65 64 69 75 73 75 76 73 74 77 77 63 78
40 48 69 92 91 92 92 92 92 91 90 90 91 90 88 87 87 89 89 86 84 79 80 80 80 78 72 67 67 64 62 61 67 71 66 37 45 78 75 76 78 78 75
42 50 54 86 91 92 92 92 92 90 90 90 89 88 88 89 90 88 86 85 84 81 80 80 75 69 67 68 64 68 70 72 68 67 41 36 41 82 78 78 78 76 73
45 46 51 89 92 91 92 92 92 90 90 89 88 88 89 87 84 83 86 86 81 80 76 70 67 67 68 66 66 71 71 68 69 55 42 50 62 77 84 80 77 77 81
44 42 74 89 93 91 91 91 87 88 92 89 84 81 75 75 79 79 86 83 77 73 67 66 66 68 67 65 65 70 67 60 63 38 46 63 71 82 84 86 87 88 88
45 44 62 91 90 86 90 86 90 88 87 88 82 87 87 86 84 84 84 80 72 66 67 68 67 67 66 65 62 65 66 63 30 38 40 52 70 81 82 82 82 83 82
48 49 57 83 88 88 83 89 90 91 90 88 87 88 88 88 87 83 78 74 71 68 68 67 66 66 65 65 64 64 58 58 30 29 33 45 72 76 80 82 82 82 82
57 64 66 74 80 93 93 93 93 92 90 90 88 90 90 89 85 79 73 71 69 68 68 67 66 65 65 65 65 67 64 60 25 26 28 40 69 76 78 76 76 76 76
71 77 79 78 76 79 81 95 93 92 92 91 93 92 90 84 79 74 73 71 68 66 67 67 67 66 65 65 65 65 64 56 25 27 33 47 70 69 70 71 72 72 72
73 77 81 76 75 77 77 84 91 91 92 92 90 90 84 57 56 56 64 74 68 67 67 67 67 67 65 64 62 52 52 27 28 31 38 73 65 65 66 68 68 69 69
77 77 77 75 72 76 75 84 77 75 72 75 76 78 62 56 48 39 62 74 69 68 68 68 68 63 51 27 32 44 28 34 32 37 51 74 61 63 64 65 66 67 69
68 69 73 76 82 80 80 72 77 68 72 76 78 70 59 52 48 46 51 50 52 60 42 44 45 24 29 25 27 32 35 32 35 51 67 74 70 64 63 63 68 68 68
64 65 70 80 86 86 76 81 76 76 73 76 76 68 56 48 49 43 41 39 45 39 39 36 32 40 39 37 38 40 41 40 42 50 64 71 65 63 63 65 68 70 70
62 70 74 82 83 88 80 78 74 72 78 76 75 63 49 41 49 44 42 38 34 33 36 36 38 36 41 42 42 48 49 50 49 46 54 72 68 64 64 67 67 68 68
44 72 78 82 81 86 82 80 75 84 81 74 72 54 52 43 49 41 41 34 32 32 32 33 34 37 38 46 50 49 48 46 49 50 48 60 69 69 68 68 71 72 71
36 45 82 86 81 86 82 76 78 79 81 76 72 57 53 50 52 45 38 36 34 34 40 38 39 39 41 43 50 48 46 47 44 45 41 47 56 75 73 74 74 74 73
30 40 53 80 85 89 85 83 81 84 85 78 67 59 55 53 52 49 38 39 38 40 36 34 34 38 42 42 44 40 43 44 48 48 42 40 44 48 68 75 75 74 75
28 36 46 74 83 87 88 84 83 90 87 80 66 60 54 54 52 47 39 41 50 38 37 33 35 40 44 46 42 42 41 39 40 38 50 52 51 45 45 70 72 70 74
28 36 43 58 82 82 84 86 85 87 86 80 71 57 62 51 54 48 41 49 47 38 38 34 42 41 42 42 35 41 41 39 40 43 47 45 50 51 46 46 43 53 70
31 38 43 54 81 83 86 94 92 91 88 87 81 66 65 58 55 50 42 51 46 40 40 43 45 51 47 43 45 46 46 47 46 43 43 45 49 47 51 49 42 41 44
29 37 43 50 71 82 77 81 81 82 85 83 80 74 73 66 63 55 50 49 46 39 47 48 51 48 47 45 39 41 49 48 44 44 43 45 52 44 46 49 50 49 46
31 37 40 46 62 82 79 79 81 84 86 85 79 77 74 69 69 64 62 58 49 43 45 50 54 53 47 48 44 35 39 34 44 44 50 44 54 50 51 47 50 48 49
32 34 40 42 48 79 82 82 86 86 87 79 78 74 74 74 68 70 67 60 58 44 46 49 54 55 47 49 52 40 42 38 36 46 44 50 54 54 62 48 50 50 49
36 37 39 45 47 74 82 81 80 86 81 77 75 79 77 78 74 69 69 68 65 48 50 50 55 53 56 43 38 41 41 37 39 34 44 49 49 59 52 53 49 48 51
36 43 46 46 48 74 82 82 81 84 85 81 77 76 82 79 76 70 72 69 68 66 67 58 64 64 50 44 36 38 35 36 33 35 38 47 46 66 60 56 51 48 49

GFSSE_sfc_rhum_189.txt.gz
RH
22 47 92 89 92 93 95 95 94 92 91 90 91 92 91 90 90 89 86 83 82 77 73 74 74 72 76 76 80 76 76 77 81 81 78 74 73 75 76 77 78 50 79
26 49 94 91 92 92 94 95 94 93 91 90 91 91 91 91 90 88 85 86 84 80 78 78 77 78 76 74 71 66 65 65 71 73 74 76 75 73 72 75 82 67 77
30 46 67 93 92 92 93 94 93 92 91 90 90 91 91 90 88 88 89 86 85 79 77 77 78 75 71 70 67 65 63 68 68 68 71 52 57 74 71 75 78 76 74
30 42 54 95 92 92 92 93 92 91 90 90 90 90 89 88 89 90 88 86 84 79 78 78 74 70 70 67 69 69 71 68 68 73 48 56 49 81 76 77 76 73 71
34 39 46 93 93 92 92 92 92 91 91 91 90 88 88 89 87 86 86 83 84 80 77 74 70 70 67 67 71 72 67 65 67 63 48 60 63 77 83 75 78 85 88
36 39 74 92 94 93 92 92 92 93 93 91 90 89 89 88 85 85 82 83 79 77 72 70 68 68 66 68 71 69 63 63 72 32 52 68 78 84 84 85 86 86 86
38 40 58 90 92 93 92 92 93 94 93 91 90 90 88 84 83 82 84 84 79 72 69 68 68 66 65 64 67 67 63 63 30 34 41 71 83 84 83 83 83 83 84
40 41 53 84 94 93 93 92 92 93 93 90 88 86 86 88 89 87 85 80 76 72 70 68 66 65 64 63 64 60 57 61 27 26 36 63 84 84 84 84 83 83 81
44 46 60 69 82 94 94 92 92 90 91 90 89 89 90 92 90 85 79 76 73 70 69 67 66 66 64 63 64 63 64 59 22 24 32 52 79 79 79 78 77 78 78
52 53 58 70 76 73 78 95 94 94 92 90 90 93 94 90 86 80 77 75 71 70 69 67 67 66 65 64 63 61 60 56 22 28 40 60 72 70 73 73 72 72 72
57 69 73 74 77 75 69 81 93 94 92 91 92 93 89 71 67 64 67 76 71 72 69 68 67 66 66 62 56 56 58 23 26 34 48 72 66 64 65 66 68 69 69
61 68 76 79 72 73 63 78 80 80 78 79 80 82 74 66 59 51 66 76 75 74 70 69 68 66 56 28 29 48 25 30 32 42 53 71 63 62 64 66 65 67 66
50 54 63 77 77 71 65 78 84 82 78 79 84 78 73 60 54 46 56 54 58 66 51 56 55 40 28 24 24 29 31 32 46 58 68 76 61 62 65 69 71 71 70
35 47 55 64 74 80 66 74 71 76 76 77 81 78 70 59 55 48 48 45 48 44 43 39 31 33 34 29 31 35 32 39 47 58 66 74 64 61 70 72 64 68 69
22 39 49 67 74 76 76 73 75 77 76 72 81 76 62 54 57 46 45 38 39 36 37 35 34 37 38 38 38 40 40 45 49 50 60 70 69 70 66 68 71 70 67
21 24 48 67 76 76 74 77 76 80 84 81 79 73 64 55 56 43 43 37 37 32 33 33 37 37 38 41 46 46 46 46 47 54 53 64 73 71 71 71 70 68 70
18 21 42 63 80 86 85 73 80 83 84 88 79 73 68 60 57 52 44 39 32 34 40 38 40 37 39 41 46 46 45 47 45 48 49 54 63 76 74 73 74 71 72
15 20 26 55 69 85 88 84 87 81 84 81 83 80 74 59 55 56 42 39 36 36 34 35 36 39 42 43 45 42 42 43 46 44 40 44 46 53 70 74 74 74 74
14 20 26 44 70 76 88 88 90 85 83 76 77 84 75 66 55 53 42 42 49 38 40 38 39 43 42 41 39 40 42 45 44 36 44 45 47 45 50 69 71 73 74
18 20 26 31 64 78 78 90 89 91 89 82 78 76 77 67 59 55 42 48 48 41 39 37 44 42 43 40 32 39 40 41 38 45 46 40 45 46 43 52 57 59 70
22 23 26 32 43 74 85 94 96 96 92 91 87 78 77 73 65 59 43 51 52 43 43 48 44 52 45 43 45 51 50 48 45 42 41 43 46 44 50 45 40 46 57
28 26 28 30 34 60 76 78 83 85 87 89 91 86 78 74 71 65 52 52 57 43 52 52 53 50 44 48 46 46 50 48 44 42 40 43 49 44 46 46 48 47 44
32 34 31 30 31 35 71 78 83 84 89 95 96 93 82 75 72 71 67 58 62 50 52 57 56 55 51 52 49 54 54 44 50 44 47 44 51 45 45 47 48 47 50
30 33 36 38 37 34 63 78 88 88 93 88 84 84 85 76 75 72 70 69 71 62 58 58 53 54 53 56 52 48 57 42 44 52 45 47 48 53 52 45 49 48 49
31 35 41 42 40 41 42 73 84 87 81 73 80 83 83 84 80 76 75 75 75 68 64 62 64 60 55 55 52 55 50 57 49 41 52 54 50 49 49 48 46 49 50
28 36 40 42 39 42 49 66 82 86 84 82 81 84 84 85 86 82 76 75 74 70 67 69 67 68 65 57 50 51 51 56 51 45 44 53 55 54 52 50 50 49 48

GFSSE_sfc_rhum_195.txt.gz
RH
75 83 92 94 95 96 95 94 94 94 92 91 92 91 90 90 90 90 89 88 85 81 75 74 76 77 79 74 74 74 77 84 87 86 85 82 77 76 82 81 81 75 87
72 80 92 94 95 96 95 94 93 93 92 91 92 92 92 92 91 89 89 87 84 79 72 70 72 78 74 72 71 69 70 77 80 83 82 78 78 76 78 85 86 84 87
76 79 86 94 95 96 95 93 93 92 92 92 92 92 93 91 88 88 88 88 85 71 69 72 72 73 72 71 70 70 75 78 79 78 78 75 82 79 80 87 87 85 85
71 79 86 94 95 96 96 94 93 92 92 92 92 92 92 90 89 90 90 86 74 69 77 75 74 73 71 72 71 71 78 80 80 87 76 80 74 81 83 86 84 86 87
71 70 84 94 95 96 96 95 94 93 93 92 92 92 91 90 90 89 88 81 76 78 79 71 74 70 72 73 71 72 74 75 78 82 90 89 86 81 83 85 86 85 84
68 68 93 95 96 96 96 95 95 95 94 94 93 91 91 91 90 89 86 82 80 78 71 74 72 68 72 71 69 69 70 75 84 87 91 88 87 82 86 87 87 87 88
62 81 86 95 95 96 96 95 89 96 95 94 93 92 92 92 90 88 84 82 84 73 74 74 70 67 67 66 64 66 70 76 78 89 92 93 90 85 86 86 86 86 86
78 84 85 92 95 96 96 96 96 96 95 94 94 94 93 92 90 88 86 82 76 78 78 74 70 67 63 61 59 64 66 73 80 88 86 86 84 83 84 84 83 84 84
80 87 92 92 93 96 96 97 97 96 95 95 95 95 94 91 89 88 86 81 84 82 77 72 70 67 62 58 58 63 66 77 83 80 76 82 80 82 83 83 83 83 82
83 90 94 97 98 98 98 97 97 96 96 96 95 95 94 92 91 89 87 85 83 79 75 72 70 68 64 61 63 63 70 79 80 78 78 76 77 79 80 78 77 76 75
81 92 94 94 96 98 98 96 96 95 94 94 93 95 95 96 91 85 83 86 83 81 78 72 71 70 67 64 64 66 66 72 74 76 72 72 73 73 75 77 77 74 74
85 94 88 91 86 95 86 97 97 95 97 97 98 97 98 97 92 76 82 86 84 82 79 75 72 70 66 64 61 65 65 71 74 75 69 73 69 63 70 68 66 66 67
75 89 90 91 92 91 87 98 93 92 94 93 95 95 96 91 84 83 86 85 92 83 87 83 82 80 66 55 56 62 74 72 77 70 72 78 70 71 73 71 63 65 66
75 81 89 90 91 90 86 96 94 88 93 97 97 93 90 91 87 84 86 93 92 92 92 91 93 83 74 52 44 74 78 81 83 83 77 78 72 70 72 64 65 65 67
68 83 84 86 91 92 90 96 96 94 93 93 96 93 87 90 84 81 82 83 85 87 89 91 86 79 73 61 57 74 78 79 81 84 87 81 78 69 68 71 70 69 66
50 76 85 85 83 91 90 95 95 94 91 96 97 95 88 81 85 76 76 78 78 77 80 77 71 76 70 64 62 73 76 79 82 87 88 83 82 78 74 69 73 69 71
28 63 86 86 85 89 92 94 94 96 96 96 96 95 89 83 88 70 75 72 72 69 72 72 72 72 72 70 77 82 79 80 82 86 90 89 82 84 78 73 72 70 69
41 42 76 79 89 91 90 94 97 97 95 92 94 94 90 86 81 72 74 68 71 69 66 70 72 75 77 82 84 79 78 78 83 84 84 83 81 78 77 76 73 74 73
45 45 66 92 94 94 94 95 97 96 97 94 94 94 91 88 83 77 66 69 69 69 67 65 78 65 76 86 75 79 82 78 80 74 80 82 83 81 74 74 74 72 72
49 50 50 76 91 94 96 96 96 98 99 98 97 96 93 90 85 82 70 75 66 62 65 68 73 86 79 72 57 72 78 78 76 78 77 73 78 81 84 82 85 78 70
48 50 57 57 66 92 97 98 99 98 98 99 98 95 94 91 89 85 75 73 69 57 58 62 73 75 77 65 70 82 84 76 76 78 73 74 71 76 83 84 89 86 73
57 57 57 58 64 64 83 84 97 95 96 94 96 98 96 94 92 88 82 74 66 60 69 64 62 81 72 66 72 74 84 79 75 72 78 71 72 69 76 74 79 78 80
57 61 58 60 59 62 73 80 95 96 98 98 99 99 98 94 92 89 86 80 76 74 69 61 60 61 67 68 60 84 89 84 84 76 80 71 72 73 72 70 73 73 76
50 59 55 50 49 51 67 84 82 92 94 97 97 95 96 94 93 91 90 85 82 79 69 64 59 60 63 66 65 73 79 75 74 82 75 76 67 70 72 72 71 70 69
43 58 58 53 49 56 58 70 88 86 90 90 91 97 96 96 95 93 91 91 89 86 73 74 67 62 63 62 63 64 80 74 78 67 80 78 72 69 65 69 75 77 70
40 49 55 56 52 53 56 56 72 80 88 92 91 91 90 94 94 94 93 93 91 91 83 79 67 67 69 60 60 56 65 64 68 64 72 77 73 75 76 72 74 76 73

GFSSE_sfc_rhum_198.txt.gz
RH
82 92 96 96 96 95 94 93 93 92 89 88 89 89 89 90 90 90 89 88 85 79 77 78 79 79 75 73 74 76 81 87 89 88 86 82 77 77 81 87 84 81 88
80 90 96 96 96 95 94 93 94 92 90 89 89 90 90 91 91 90 89 87 83 76 74 74 79 76 74 72 72 72 75 82 84 85 85 80 77 79 82 88 88 87 88
82 88 92 96 96 95 94 93 93 92 90 90 90 90 91 90 91 89 89 88 82 76 72 74 76 74 73 71 73 75 79 82 81 77 78 86 87 77 80 88 88 87 87
79 89 92 96 96 96 95 94 93 92 91 91 91 91 90 89 89 88 90 87 80 77 73 75 76 73 73 71 74 77 79 82 92 87 87 85 77 82 80 84 86 86 86
78 84 90 97 97 97 95 94 94 93 93 92 92 91 90 89 88 90 90 82 79 78 71 76 75 72 73 72 75 76 75 84 92 88 95 95 89 79 80 82 84 82 82
77 84 96 97 97 97 96 96 95 96 95 94 93 92 90 89 89 90 86 83 80 77 71 77 74 71 71 71 73 72 82 92 92 97 97 90 91 82 85 88 86 87 87
77 87 92 96 98 97 96 96 97 96 95 95 94 93 92 90 90 89 86 86 84 78 75 77 72 70 68 67 66 70 88 90 94 97 97 90 87 83 84 86 86 86 85
78 87 88 94 96 97 97 97 93 97 96 95 95 94 94 93 91 89 87 86 83 84 81 77 72 67 64 60 64 70 87 89 87 92 93 89 85 82 84 84 85 85 84
86 90 91 94 94 97 98 97 95 97 96 96 96 96 96 94 91 89 86 84 83 85 80 76 72 68 62 57 65 74 87 89 96 90 77 77 80 81 84 85 85 85 84
94 96 97 98 96 97 98 98 98 98 97 96 96 97 96 93 90 89 87 86 87 83 80 75 72 69 65 60 67 75 89 88 93 89 92 86 80 78 81 82 82 80 80
94 97 98 98 98 98 98 98 98 97 97 97 96 97 96 97 95 92 87 86 86 85 82 76 73 72 70 66 69 83 84 87 86 87 89 82 78 78 79 81 79 78 77
97 98 97 97 98 98 93 98 99 98 98 98 98 98 99 98 97 88 90 89 87 86 82 79 76 73 70 74 76 76 81 82 86 84 84 78 71 67 71 77 76 74 74
89 94 96 96 97 98 94 98 98 99 99 99 98 98 99 96 97 97 97 86 92 87 92 86 85 84 78 58 67 82 82 83 88 85 80 75 68 68 69 66 66 65 65
95 93 94 95 97 98 97 98 95 97 99 99 98 97 97 98 98 98 97 90 96 97 95 94 96 87 80 57 76 83 82 86 91 92 84 78 71 70 67 64 64 66 67
91 94 95 96 96 96 97 98 98 98 98 98 98 96 93 93 92 93 94 91 95 97 94 96 95 88 83 70 84 83 83 87 88 90 92 82 77 75 61 64 64 68 70
75 89 96 95 94 93 94 97 97 94 95 95 96 96 92 89 89 87 93 95 94 90 91 91 89 86 83 76 90 86 82 85 92 96 97 86 78 75 72 69 68 68 68
55 82 92 94 96 96 95 97 98 98 98 97 97 97 94 89 90 84 85 87 87 85 88 87 87 82 80 73 91 89 86 88 90 94 94 94 88 82 77 73 72 70 70
67 82 95 86 94 97 97 98 98 99 99 98 98 97 94 89 86 82 82 85 84 80 81 80 80 82 79 86 97 93 90 89 91 90 90 90 84 83 82 78 73 74 68
61 89 97 97 97 96 96 98 98 98 99 98 98 97 96 92 86 87 84 81 78 78 77 74 75 69 74 92 91 94 92 92 90 80 86 87 87 80 81 80 79 76 73
54 63 89 96 96 95 97 97 98 99 99 99 98 97 96 96 92 92 86 84 79 78 76 72 70 74 66 78 75 88 94 92 89 88 84 80 83 80 77 76 79 77 73
64 53 55 62 75 92 98 95 98 98 99 99 99 98 96 96 95 94 94 90 82 85 79 71 66 70 73 69 78 92 91 91 95 90 87 86 81 84 86 81 87 81 75
64 68 67 63 66 77 84 90 98 99 98 99 98 98 98 98 96 97 96 93 89 82 80 78 69 74 64 69 72 78 85 78 82 89 85 84 86 82 81 80 82 77 78
62 60 62 66 67 76 79 83 87 93 95 95 96 98 98 98 97 97 97 96 93 90 86 76 71 68 68 74 63 78 90 91 93 94 89 83 83 85 80 78 78 72 78
68 62 53 49 48 71 82 84 80 88 86 94 95 96 96 95 97 95 96 96 95 92 86 82 75 67 68 82 69 62 77 76 82 97 86 85 78 77 81 81 80 74 77
61 63 62 54 53 56 57 70 88 88 92 91 92 88 91 93 94 94 94 95 98 97 92 90 86 82 73 73 78 70 74 79 83 79 90 91 79 76 78 79 78 78 74
56 58 62 56 56 56 58 60 68 76 85 92 93 95 94 93 94 95 95 94 93 93 97 95 93 88 83 80 76 65 67 70 74 71 78 83 80 79 75 80 78 78 77

GFSSE_sfc_rhum_204.txt.gz
RH
81 95 96 95 93 92 93 92 92 90 88 87 89 90 91 91 91 91 90 88 85 80 78 76 75 74 73 79 83 87 89 92 90 88 86 81 78 81 84 87 88 80 86
77 96 97 96 93 92 92 92 92 90 89 88 88 89 90 91 91 91 90 88 84 79 79 76 74 73 72 76 80 84 88 91 91 89 86 80 79 79 84 87 89 83 86
86 95 97 96 94 92 91 91 90 89 89 89 90 91 91 91 91 91 89 86 83 79 78 75 74 72 73 76 81 84 84 88 89 90 87 88 85 81 83 86 89 85 84
90 96 95 97 94 93 92 91 91 89 89 89 89 90 90 90 90 90 89 86 82 78 76 74 74 72 75 79 84 87 91 85 89 90 88 88 78 80 81 83 84 82 82
95 97 96 98 96 94 94 93 92 90 90 90 90 90 89 89 87 89 90 86 82 78 77 75 75 73 76 81 81 89 93 93 92 89 92 92 89 79 80 80 83 81 80
98 98 98 98 96 94 94 94 93 92 93 92 91 90 89 88 88 90 89 86 82 79 78 77 76 72 74 77 76 91 95 95 94 94 93 89 88 80 81 82 88 87 87
98 98 98 99 97 95 94 94 94 93 93 93 93 92 90 89 92 89 87 87 84 81 81 78 75 71 69 74 87 95 95 95 95 96 94 92 89 80 80 80 83 84 84
97 98 98 98 98 96 95 96 96 94 94 94 94 93 92 92 93 89 88 88 87 86 84 79 74 68 65 71 94 95 95 93 91 94 92 92 86 81 80 82 84 84 82
95 98 99 92 94 98 98 98 97 96 95 95 95 95 94 94 93 89 90 89 89 89 84 79 74 68 62 66 93 95 94 94 96 93 87 92 85 80 79 83 84 83 84
96 98 99 94 89 95 96 99 98 97 96 96 96 96 96 95 93 90 90 90 90 89 85 79 75 70 63 66 91 94 95 94 93 87 84 83 84 80 80 80 86 86 84
98 98 99 96 91 92 91 98 94 97 97 97 96 97 98 98 96 93 93 92 90 90 88 81 76 73 71 67 82 95 94 96 94 92 94 85 82 79 78 80 83 83 83
98 99 99 98 93 91 85 90 90 92 97 98 97 99 99 98 98 96 93 92 90 89 88 84 80 75 75 79 97 94 97 96 95 94 95 84 74 74 78 80 80 80 80
94 98 99 99 94 89 86 90 95 98 98 99 97 98 99 99 99 98 99 98 98 91 97 91 90 92 85 72 97 99 96 94 94 95 93 86 78 74 76 78 79 79 79
95 97 98 99 96 91 98 85 95 98 99 100 99 98 99 100 100 99 99 98 98 98 97 96 95 92 85 64 78 95 93 92 93 96 92 87 82 73 71 69 72 75 78
94 97 99 99 92 89 91 94 96 97 98 98 99 99 98 99 99 99 99 99 99 98 97 97 95 90 84 67 76 94 93 91 92 95 94 84 82 75 68 67 67 70 69
90 96 99 99 96 89 93 97 97 97 97 98 99 99 98 96 99 99 99 97 95 93 92 97 94 91 83 77 81 95 93 91 94 96 93 88 84 79 72 67 63 64 70
89 94 98 98 98 93 95 96 98 98 98 99 98 97 97 98 99 97 95 96 97 96 97 97 96 88 82 80 82 96 95 93 94 96 95 93 86 84 78 71 71 70 71
87 98 98 95 98 99 99 99 99 99 99 99 99 99 99 98 97 98 98 96 97 96 93 98 96 94 84 75 82 95 96 95 95 97 96 94 94 84 80 76 76 75 75
90 98 93 92 97 99 98 99 99 99 99 99 99 99 98 98 98 98 96 92 94 95 95 93 93 90 89 83 80 87 94 93 92 92 95 95 94 91 88 81 78 79 77
90 93 95 98 98 98 99 99 100 100 99 99 99 99 98 99 98 99 99 98 98 98 97 97 95 96 90 82 68 86 94 90 93 94 96 92 96 94 93 86 79 79 82
78 88 96 98 99 98 96 97 98 98 99 99 98 98 98 99 98 99 99 99 99 98 95 95 95 95 97 92 95 98 94 94 94 94 92 93 95 94 95 92 87 82 78
74 80 83 76 72 82 92 97 97 98 96 96 96 94 94 92 92 95 96 97 97 99 98 98 98 98 97 92 94 97 99 98 96 94 92 93 94 92 92 89 87 85 86
74 75 75 77 78 84 88 85 85 85 85 85 85 90 88 89 88 89 90 94 94 95 99 96 98 98 98 97 91 95 100 97 98 98 96 91 93 93 89 86 84 82 84
75 72 75 78 79 76 74 77 73 81 80 88 94 94 93 89 88 89 91 92 93 96 98 98 97 98 98 98 98 94 95 96 97 100 98 97 93 93 90 87 82 82 83
72 70 70 73 73 74 77 83 90 87 92 92 90 85 86 87 85 84 85 90 90 90 94 95 98 97 97 97 97 95 95 96 99 98 98 98 98 94 94 91 83 84 82
75 68 65 64 67 70 75 79 80 76 80 84 85 89 90 91 92 90 88 90 85 86 90 91 94 96 98 97 94 93 96 94 96 97 99 95 94 96 97 96 94 93 85